Location: Gokavaram
(16.9752°N, 81.0696°E)
Time: 10:58:54
(UTC+00:00)

Cosmos 1782 - Pass Details

Date: 15 May 2026
Orbit: 458 x 463 km, 82.5° (Epoch: 7 June)

Event Time Altitude Azimuth Distance (km) Brightness Sun altitude
Exits shadow 14:38:25 73° 311° (NW) 482 2.5 -22.3°
Drops below altitude 10° 14:41:44 10° 1° (N) 1,603 5.5 -22.9°
Sets 14:43:48 0° 3° (N) 2,479 6.5 -23.4°
